Weather in Lysva

Russia / Perm Krai     58°06′01″N   57°48′41″E
temp.,
°C
wind,
m/s
gust,
m/s
humid.,
%
clouds,
%
prec.,
mm/h
press.,
hPa
HPBL,
m
28 february, sun
sun2823:00−19ese51192100 0.4 1012579
02:00−18e51193100 0.2 1011542
05:00−18e51292100 0.4 1011542
08:00−18e51192100 0.2 1010571
11:00−17e51191100 0.4 1010543
14:00−15e51089100 0.2 1010602
17:00−15ene4991100 0.4 1011603
20:00−17ene41093100 0.3 1013524
1 march, mon
mon123:00−17e3109399 0.4 1014499
02:00−17ene389498 0.1 1015421
05:00−19ne279698 0.2 1017320
08:00−20ne249791 0.1 1018126
11:00−17ene248981 0.1 1019317
14:00−11e128396 0.0 1017487
17:00−11n118599 0.0 1017494
20:00−17ssw019798 0.0 101620
2 march, tue
tue223:00−18ssw229994 0.1 101620
02:00−20ssw2310075 0.0 101476
05:00−20s3910086 0.1 1012199
08:00−19s41297100 0.0 1010345
11:00−17s51193100 0.1 1008405
14:00−13s51192100 0.1 1006509
17:00−11s51191100 0.3 1004601
20:00−12ssw41193100 0.3 1003626
3 march, wed
wed323:00−13ssw41093100 0.4 1002536
02:00−13s3994100 0.3 1001474
05:00−13s3895100 0.5 1000392
08:00−13s2696100 0.5 999291
11:00−11s2392100 0.9 998334
14:00−8ssw1289100 0.3 998417
17:00−7w1291100 0.5 997364
20:00−10wnw129798 0.1 99821
4 march, thu
thu423:00−12wnw229890 0.1 99921
02:00−11nw379690 0.1 1000257
05:00−14wnw279895 0.2 1001156
08:00−15wnw2898100 0.1 1002204
11:00−11w3693100 0.2 1002355
14:00−8w4688100 0.1 1002722
17:00−8wsw4787100 0.2 1002896
20:00−10ssw31193100 0.1 1001444